Hourly Data Report for June 04, 2008

HALIFAX STANFIELD INT'L A
NOVA SCOTIA

44°52'48.060" N
63°30'00.050" W
145.40 m
8202250
71395
YHZ

Download Data

Hourly Data (June 2008)
Hourly Data Report for June 4, 2008
TIME
LST
Temp Definition
°C
Dew Point Definition
°C
Rel Hum Definition
%
Precip. Amount Definition
mm

Wind Dir Definition
10's deg

Wind Spd Definition
km/h
Visibility Definition
km
Stn Press Definition
kPa
Hmdx Definition


Wind Chill Definition


Weather Definition


00:00 12.6 10.1 85   18 11 24.1 99.75     Mostly Cloudy
01:00 12.9 10.4 85     0 24.1 99.79     Mostly Cloudy
02:00 12.1 10.2 88   17 4 24.1 99.82     Mostly Cloudy
03:00 12.3 10.4 88   22 4 24.1 99.83     Cloudy
04:00 12.8 10.3 85   32 4 24.1 99.86     Cloudy
05:00 11.2 10.1 93   2 7 24.1 99.89     Cloudy
06:00 13.5 11.3 87   3 6 24.1 99.92     Cloudy
07:00 15.0 11.7 81   2 7 24.1 99.97     Cloudy
08:00 15.4 11.9 80   7 4 24.1 99.99     Cloudy
09:00 16.9 12.9 77   12 19 24.1 99.88     Cloudy
10:00 15.5 11.3 76   13 17 24.1 99.95     Cloudy
11:00 17.0 11.5 70   16 17 24.1 99.94     Cloudy
12:00 17.4 11.6 69   16 22 24.1 99.91     Cloudy
13:00 16.5 10.1 66   16 20 24.1 99.88     Cloudy
14:00 17.4 10.9 66   16 13 24.1 99.93     Cloudy
15:00 18.7 11.6 63   21 17 24.1 99.92     Cloudy
16:00 18.9 11.8 63   20 9 24.1 99.88     Cloudy
17:00 18.6 12.5 68   19 9 24.1 99.90     Cloudy
18:00 16.8 11.7 72   14 13 24.1 99.92     Cloudy
19:00 15.0 11.7 81   17 6 24.1 99.98     Cloudy
20:00 13.5 10.7 83   36 4 24.1 100.06     Rain Showers
21:00 14.3 11.7 84   35 11 24.1 100.04     Cloudy
22:00 13.2 10.9 86   4 4 24.1 100.09     Cloudy
23:00 11.7 10.2 91   16 7 24.1 100.08     Cloudy

Notes on Data Quality.

Legend

  • E = Estimated
  • M = Missing
  • NA = Not Available*
  • [empty] = Indicates an unobserved value
Date modified: